Location: Unspecified
(63.3230°N, 0.0000°E)
Time: 19:32:50
(UTC+00:00)

CZ-4 R/B DEB - Visible Passes

Search period start: 04 April 2026 00:00
Search period end: 14 April 2026 00:00
Orbit: 872 x 886 km, 99.0° (Epoch: 29 March)

Date Brightness Start Highest point End Pass type
(mag) Time Alt. Az. Time Alt. Az. Time Alt. Az.
4 Apr ? 03:07:11 10° NE 03:11:21 21° E 03:15:30 10° SE visible
5 Apr ? 03:03:35 10° NE 03:07:38 20° E 03:11:40 10° SE visible
6 Apr ? 03:00:00 10° NE 03:03:55 19° E 03:07:51 10° SE visible
7 Apr ? 02:56:25 10° NE 03:00:13 18° E 03:04:00 10° SE visible
8 Apr ? 02:52:50 10° NE 02:56:30 17° E 03:00:09 10° ESE visible
9 Apr ? 02:49:16 10° NE 02:52:47 17° E 02:56:18 10° ESE visible
10 Apr ? 02:45:43 10° NE 02:49:04 16° ENE 02:52:25 10° ESE visible
11 Apr ? 02:42:10 10° NE 02:45:21 15° ENE 02:48:32 10° ESE visible
12 Apr ? 02:38:38 10° NE 02:41:38 14° ENE 02:44:38 10° ESE visible
13 Apr ? 02:35:06 10° NE 02:37:55 14° ENE 02:40:42 10° ESE visible
